Content
SEND FEEDBACK

Daily
Averages
Monthly
Summary
United States of America

URBANA, OHIO


Home > North America > United States > Ohio
Elevation: 1056 feet     Latitude: 40 05N     Longitude: 083 46W

WEATHER
 
SELECT A DAY
Number of Records: 105,492;   Date Range: 1/3/95 - 8/30/14
 
SHARE

PRINT THIS DATA

[ ← Previous Day ]
WEATHER ALMANAC - JANUARY 31, 2013
[ Next Day → ]
[ °C ]   °F
Weather ElementAverageHighLow
Temperature21.6 °F28 °F (1:56 am)13.1 °F (11:56 pm)
Dewpoint15.2 °F21 °F (1:56 am)3 °F (11:56 pm)
Humidity77 %93 % (6:49 pm)60 % (10:56 am)
Barometer29.86 in30.04 in (11:56 pm)29.60 in (1:56 am)
Wind Speed18.9 mph31.1 mph (2:56 pm)
Wind Gust40.3 mph (4:56 am)
Weather ElementAverage
Visibility4.1 mi
Wind DirectionW (272.4 °)

Weather ElementTotal
Precipitation---
Heating Degree Days44.5 (Base 65)
Averaged from 66 records on January 31, 2013
WEATHER CONDITIONS BREAKOUT
WIND DIRECTION BREAKOUT
WEATHER BY HOUR - JANUARY 31, 2013
[ °C ]   °F
Local TimeTemperatureDewpointHumidityBarometerVisibilityWind DirectionWind SpeedGust SpeedPrecipitationEventsConditions
1:56 AM28.0 °F21.0 °F75 %29.60 in8.0 miWest (280°)20.7 mph28.8 mph0.00 inOvercast
2:56 AM26.1 °F20.1 °F78 %29.64 in4.0 miWest (270°)28.8 mph38.0 mph0.00 inSnowLight Snow
3:56 AM25.2 °F18.1 °F75 %29.67 in4.0 miWest (270°)23.0 mph35.7 mph0.00 inSnowLight Snow
4:08 AM24.8 °F19.4 °F80 %29.66 in3.0 miWest (270°)23.0 mph32.2 mph0.00 inSnowLight Snow
4:17 AM24.8 °F19.4 °F80 %29.67 in1.8 miWest (270°)26.5 mph31.1 mph0.00 inSnowLight Snow
4:26 AM23.0 °F19.4 °F86 %29.67 in3.0 miWest (260°)25.3 mph31.1 mph0.00 inSnowLight Snow
4:56 AM23.0 °F13.1 °F66 %29.72 in7.0 miWest (270°)27.6 mph40.3 mph0.00 inOvercast
5:56 AM22.1 °F15.1 °F74 %29.73 in5.0 miWest (280°)19.6 mph0.00 inSnowLight Snow
6:10 AM23.0 °F15.8 °F74 %29.72 in8.0 miWest (260°)24.2 mph34.5 mph0.00 inSnowLight Snow
6:32 AM21.2 °F14.0 °F74 %29.73 in3.0 miWest (280°)21.9 mph33.4 mph0.00 inSnowLight Snow
6:56 AM22.1 °F13.1 °F68 %29.76 in7.0 miWest (260°)25.3 mph31.1 mph0.00 inSnowLight Snow
7:56 AM22.1 °F12.0 °F65 %29.81 in9.0 miWest (280°)23.0 mph35.7 mph0.00 inSnowLight Snow
8:56 AM20.1 °F11.1 °F68 %29.84 in6.0 miWest (280°)16.1 mph0.00 inSnowLight Snow
9:26 AM19.4 °F12.2 °F74 %29.82 in5.0 miWest (280°)18.4 mph0.00 inSnowLight Snow
9:30 AM19.4 °F12.2 °F74 %29.83 in1.8 miWest (280°)20.7 mph27.6 mph0.00 inSnowLight Snow
9:33 AM19.4 °F14.0 °F80 %29.83 in1.0 miWest (260°)28.8 mph36.8 mph0.00 inSnowLight Snow
9:42 AM19.4 °F12.2 °F74 %29.83 in1.5 miWest (280°)25.3 mph38.0 mph0.00 inSnowLight Snow
9:46 AM19.4 °F12.2 °F74 %29.83 in4.0 miWest (270°)27.6 mph32.2 mph0.00 inSnowLight Snow
9:56 AM20.1 °F10.0 °F65 %29.88 in8.0 miWest (270°)25.3 mph34.5 mph0.00 inOvercast
10:56 AM21.0 °F9.1 °F60 %29.90 in8.0 miWest (280°)23.0 mph33.4 mph0.00 inOvercast
11:42 AM21.2 °F14.0 °F74 %29.87 in7.0 miWSW (250°)17.3 mph27.6 mph0.00 inSnowLight Snow
11:56 AM22.1 °F14.0 °F71 %29.91 in4.0 miWSW (250°)19.6 mph26.5 mph0.00 inSnowLight Snow
12:06 PM21.2 °F14.0 °F74 %29.87 in2.0 miWSW (250°)18.4 mph28.8 mph0.00 inSnowLight Snow
12:11 PM21.2 °F15.8 °F80 %29.86 in1.2 miWSW (250°)19.6 mph28.8 mph0.00 inSnowLight Snow
12:18 PM21.2 °F15.8 °F80 %29.86 in2.0 miWSW (240°)23.0 mph27.6 mph0.00 inSnowLight Snow
12:27 PM23.0 °F15.8 °F74 %29.86 in4.0 miWSW (240°)21.9 mph25.3 mph0.00 inSnowLight Snow
12:56 PM24.1 °F15.1 °F69 %29.89 in8.0 miWSW (240°)19.6 mph0.00 inOvercast
1:38 PM24.8 °F15.8 °F69 %29.84 in6.0 miWSW (250°)18.4 mph0.00 inSnowLight Snow
1:56 PM25.2 °F14.0 °F63 %29.88 in7.0 miWSW (250°)28.8 mph33.4 mph0.00 inSnowLight Snow
2:38 PM24.8 °F17.6 °F74 %29.84 in4.0 miWSW (250°)21.9 mph36.8 mph0.00 inSnowLight Snow
2:56 PM26.1 °F14.0 °F60 %29.88 in6.0 miWest (260°)31.1 mph36.8 mph0.00 inSnowLight Snow
3:56 PM26.1 °F14.0 °F60 %29.88 in9.0 miWSW (240°)20.7 mph25.3 mph0.00 inSnowLight Snow
4:41 PM24.8 °F15.8 °F69 %29.86 in2.5 miWest (260°)26.5 mph31.1 mph0.00 inSnowLight Snow
4:44 PM24.8 °F17.6 °F74 %29.87 in1.2 miWest (270°)23.0 mph31.1 mph0.00 inSnowLight Snow
4:56 PM24.1 °F19.0 °F81 %29.91 in1.2 miWest (270°)19.6 mph27.6 mph0.00 inSnowLight Snow
5:06 PM23.0 °F17.6 °F80 %29.87 in2.0 miWest (260°)20.7 mph0.00 inSnowLight Snow
5:09 PM23.0 °F17.6 °F80 %29.87 in3.0 miWest (260°)18.4 mph27.6 mph0.00 inSnowLight Snow
5:56 PM23.0 °F17.1 °F78 %29.91 in7.0 miWest (260°)16.1 mph0.00 inSnowLight Snow
6:24 PM24.8 °F17.6 °F74 %29.87 in7.0 miWest (260°)17.3 mph0.00 inSnowLight Snow
6:31 PM23.0 °F17.6 °F80 %29.88 in1.8 miWest (260°)17.3 mph0.00 inSnowLight Snow
6:34 PM23.0 °F17.6 °F80 %29.88 in1.2 miWest (260°)16.1 mph0.00 inSnowLight Snow
6:37 PM23.0 °F17.6 °F80 %29.88 in1.5 miWest (260°)13.8 mph0.00 inSnowLight Snow
6:40 PM23.0 °F17.6 °F80 %29.88 in2.0 miWest (260°)15.0 mph0.00 inSnowLight Snow
6:49 PM21.2 °F19.4 °F93 %29.88 in1.2 miWest (260°)12.7 mph0.00 inSnowLight Snow
6:56 PM22.1 °F19.0 °F88 %29.93 in2.0 miWest (260°)11.5 mph0.00 inSnowLight Snow
7:08 PM21.2 °F19.4 °F93 %29.89 in2.0 miWest (270°)11.5 mph0.00 inSnowLight Snow
7:20 PM21.2 °F19.4 °F93 %29.89 in2.5 miWest (280°)10.4 mph0.00 inSnowLight Snow
7:26 PM21.2 °F19.4 °F93 %29.89 in1.5 miWest (270°)12.7 mph20.7 mph0.00 inSnowLight Snow
7:29 PM21.2 °F19.4 °F93 %29.89 in1.0 miWest (280°)12.7 mph20.7 mph0.00 inSnowLight Snow
7:34 PM21.2 °F19.4 °F93 %29.89 in0.8 miWNW (300°)12.7 mph0.00 inSnowLight Snow
7:48 PM21.2 °F17.6 °F86 %29.90 in1.2 miWNW (300°)12.7 mph0.00 inSnowLight Snow
7:56 PM21.0 °F18.1 °F89 %29.94 in6.0 miWNW (290°)11.5 mph0.00 inSnowLight Snow
8:06 PM21.2 °F17.6 °F86 %29.90 in1.8 miWNW (300°)12.7 mph0.00 inSnowLight Snow
8:36 PM19.4 °F15.8 °F86 %29.91 in3.0 miWNW (290°)11.5 mph0.00 inSnowLight Snow
8:56 PM19.0 °F14.0 °F81 %29.96 in6.0 miWest (280°)15.0 mph0.00 inSnowLight Snow
9:04 PM19.4 °F12.2 °F74 %29.90 in9.0 miWNW (290°)13.8 mph0.00 inMostly Cloudy
9:17 PM19.4 °F12.2 °F74 %29.91 in7.0 miWNW (290°)15.0 mph0.00 inMostly Cloudy
9:28 PM19.4 °F12.2 °F74 %29.91 in8.0 miWNW (300°)11.5 mph0.00 inScattered Clouds
9:33 PM19.4 °F12.2 °F74 %29.90 in8.0 miWNW (300°)13.8 mph0.00 inSnowLight Snow
9:43 PM17.6 °F14.0 °F86 %29.91 in1.8 miWNW (300°)13.8 mph0.00 inSnowLight Snow
9:47 PM17.6 °F14.0 °F86 %29.92 in1.5 miWNW (300°)15.0 mph0.00 inSnowLight Snow
9:56 PM18.1 °F14.0 °F84 %29.97 in1.8 miNW (310°)13.8 mph0.00 inSnowLight Snow
10:05 PM17.6 °F12.2 °F79 %29.92 in3.0 miWNW (300°)16.1 mph0.00 inSnowLight Snow
10:22 PM15.8 °F8.6 °F73 %29.93 in5.0 miWNW (300°)18.4 mph25.3 mph0.00 inSnowLight Snow
10:56 PM14.0 °F7.2 °F74 %30.00 in4.0 miNW (310°)13.8 mph26.5 mph0.00 inSnowLight Snow
11:56 PM13.1 °F3.0 °F64 %30.04 in7.0 miWNW (300°)18.4 mph27.6 mph0.00 inMostly Cloudy
Hourly data recorded from KSGH, located miles away from Urbana, Ohio







STORIES FROM OUR PARTNERS